Temp
52 47 43 48 48 47 44 41 41 45 52 48 45 46 49 51 48 47 46 47 49 50 55 56 56 57 57 59 62 63 63 64 65 63 62 61 61 64 65 64 63 62 64 64
47 43 51 52 51 49 45 41 41 47 51 47 45 46 48 48 47 47 48 48 48 52 54 55 55 55 55 58 64 64 65 65 65 65 64 64 64 64 62 61 60 62 64 63
45 50 55 54 49 47 44 41 41 43 48 47 44 41 42 47 48 49 48 49 55 54 53 54 55 53 54 57 63 62 64 66 66 66 64 62 61 60 59 58 57 57 61 61
47 53 54 49 48 48 39 48 48 46 42 35 43 32 38 41 43 44 45 54 52 53 54 55 55 53 53 57 62 63 62 63 63 65 64 62 61 58 57 56 56 55 57 57
48 49 48 47 49 50 46 49 46 45 40 36 37 33 37 39 40 41 45 53 51 53 53 55 55 55 58 60 60 60 60 60 61 62 63 61 59 58 58 55 54 54 55 56
49 53 52 52 51 51 51 46 43 40 37 31 35 34 34 37 38 41 47 51 51 52 53 57 59 60 59 60 59 59 58 58 60 60 60 59 57 56 54 55 54 53 53 53
45 47 51 54 46 48 46 38 26 29 26 28 37 32 37 40 41 43 48 49 51 51 51 53 56 58 58 58 59 58 58 57 59 58 57 56 57 56 54 54 52 52 51 52
38 37 48 52 48 44 41 39 26 20 20 23 36 29 39 43 45 45 49 51 51 51 51 52 54 56 57 57 58 58 57 56 57 58 57 56 56 55 54 54 54 53 53 53
37 39 48 51 50 49 40 36 40 29 28 25 30 38 44 43 42 44 47 50 49 50 50 51 52 54 55 56 56 57 57 56 56 56 57 57 56 56 54 54 54 53 53 54
45 37 45 49 50 48 44 46 35 31 23 25 28 30 34 39 41 44 43 48 49 50 50 50 51 52 53 54 55 56 56 55 55 56 56 55 56 56 56 55 53 53 54 54
44 41 39 45 43 41 41 38 37 37 32 29 26 32 40 41 43 43 44 45 49 48 48 49 50 51 52 53 54 54 54 53 53 54 54 54 54 54 54 54 53 53 53 53
45 40 35 41 44 47 43 41 39 32 31 30 29 33 42 43 44 44 44 47 49 49 49 49 50 50 50 50 51 51 52 52 52 53 53 53 53 53 52 52 52 54 52 53
46 38 32 36 40 42 41 42 41 37 34 29 28 34 42 39 41 44 44 49 50 49 49 50 50 50 51 51 51 52 52 53 53 53 52 52 51 51 51 51 52 53 53 53
52 38 38 36 38 39 38 41 40 39 31 31 32 34 40 41 41 43 42 45 50 50 50 50 49 49 49 49 48 49 51 52 51 50 49 47 49 50 51 51 51 51 51 51
46 40 37 39 41 42 41 41 40 39 37 37 38 37 43 44 43 44 44 44 49 49 50 50 50 49 50 49 50 49 46 46 45 44 44 42 44 47 48 48 48 48 48 48
42 38 37 36 41 41 40 42 41 41 39 39 38 39 47 44 42 42 43 43 44 48 50 50 51 50 50 49 49 45 43 43 44 42 41 42 42 41 41 42 42 42 41 41
41 37 35 33 38 38 36 41 42 41 41 45 39 47 44 41 44 45 44 44 45 46 46 46 49 49 50 47 44 42 42 42 41 42 41 41 41 40 39 40 40 38 37 37
37 38 35 31 33 30 43 44 46 46 46 45 44 46 46 48 49 47 47 47 46 47 46 46 45 44 44 43 43 42 42 41 41 40 40 40 40 39 38 38 36 35 35 35
40 37 31 32 30 38 43 44 44 43 46 49 50 47 47 44 45 44 48 49 50 49 48 47 47 44 43 43 42 42 41 41 41 40 39 40 39 38 37 36 35 34 34 34
40 38 38 29 30 32 45 47 49 50 41 50 52 46 43 45 40 45 47 50 48 49 48 46 45 44 43 42 42 42 40 40 40 40 40 40 39 38 37 36 35 34 34 35
34 34 32 31 30 37 46 49 50 42 46 49 50 48 45 46 48 51 50 50 51 50 47 46 46 46 46 43 43 42 40 40 41 41 40 39 39 38 37 35 34 33 33 33
34 31 31 31 30 34 49 47 47 52 47 49 47 47 49 48 49 47 49 49 48 47 46 47 46 45 44 44 45 41 41 42 41 41 40 38 37 41 38 35 33 33 32 31
37 39 36 39 38 50 52 49 52 51 52 48 48 48 51 48 49 47 46 47 48 48 48 48 47 44 43 45 47 43 43 41 40 39 38 37 36 36 35 33 32 31 31 31
38 40 39 42 48 47 50 49 48 51 51 51 50 49 50 51 48 48 46 46 47 48 48 48 46 45 43 45 46 47 42 43 42 39 36 35 35 34 33 34 33 32 31 30
41 43 38 39 42 45 48 51 53 52 50 51 51 51 53 50 49 49 46 46 48 48 48 48 48 47 46 45 46 44 44 43 41 39 37 36 36 35 32 33 32 33 31 33
39 40 45 42 49 52 54 59 52 53 52 53 53 51 51 52 51 49 48 48 48 48 48 48 48 47 47 45 46 44 44 44 42 39 38 37 36 33 32 31 31 42 41 43
MSLP
1013.89 1014.68 1014.81 1014.76 1014.98 1015.07 1015.39 1015.65 1015.68 1014.92 1014.29 1014.47 1014.39 1014.52 1014.63 1014.97 1015.49 1016.11 1016.53 1015.90 1015.23 1014.52 1013.48 1012.97 1012.68 1012.20 1011.53 1010.98 1010.17 1010.36 1010.84 1010.99 1011.55 1012.26 1012.60 1012.87 1013.14 1013.75 1014.24 1015.06 1015.79 1016.53 1016.78 1017.31
1014.51 1014.47 1013.94 1014.31 1014.63 1014.98 1015.29 1015.47 1015.40 1014.81 1014.47 1014.70 1014.66 1014.74 1014.74 1015.09 1015.65 1016.22 1016.30 1015.94 1015.10 1014.15 1013.41 1012.86 1012.56 1012.18 1011.54 1011.22 1010.44 1010.22 1010.39 1010.57 1011.17 1011.66 1012.40 1012.67 1013.51 1013.97 1014.81 1015.52 1016.20 1016.64 1017.04 1017.52
1014.22 1013.48 1013.39 1013.89 1014.35 1014.83 1015.04 1015.26 1015.16 1015.20 1014.94 1014.88 1015.23 1015.11 1015.11 1015.25 1015.72 1016.23 1016.28 1015.91 1014.88 1014.40 1013.49 1012.85 1012.41 1012.09 1011.42 1011.05 1010.60 1010.55 1010.61 1010.86 1011.32 1011.74 1012.32 1013.13 1013.86 1014.64 1015.41 1016.07 1016.96 1017.52 1017.35 1017.77
1013.79 1013.02 1013.20 1013.66 1014.11 1014.61 1014.91 1014.65 1015.06 1015.43 1015.78 1016.10 1016.05 1016.43 1015.72 1015.65 1016.06 1016.70 1016.29 1015.40 1015.01 1014.24 1013.65 1012.84 1012.22 1011.88 1011.62 1011.33 1011.03 1010.97 1011.04 1011.58 1011.69 1011.99 1012.48 1013.25 1013.93 1014.79 1015.20 1016.31 1017.08 1017.50 1017.75 1018.16
1013.19 1012.93 1013.06 1013.38 1013.65 1014.06 1014.57 1014.79 1015.42 1015.87 1016.45 1016.88 1017.02 1017.51 1015.93 1016.03 1016.16 1016.78 1016.31 1015.44 1015.19 1014.46 1013.79 1012.86 1012.31 1012.01 1011.71 1011.83 1011.69 1011.70 1011.80 1012.42 1012.23 1012.44 1012.94 1013.29 1014.13 1014.83 1015.18 1015.89 1017.22 1017.68 1017.89 1018.58
1013.00 1012.69 1012.71 1012.79 1013.23 1013.77 1014.50 1015.37 1016.27 1016.94 1017.50 1017.98 1017.71 1017.79 1016.66 1016.40 1016.60 1017.00 1016.49 1015.73 1015.56 1014.95 1014.14 1013.24 1012.87 1012.43 1012.47 1012.55 1012.54 1012.60 1012.82 1013.00 1012.85 1013.18 1013.26 1013.73 1014.62 1015.16 1015.74 1016.28 1016.80 1017.44 1017.95 1018.53
1013.14 1012.82 1012.47 1012.56 1013.44 1014.13 1014.93 1016.22 1017.60 1018.55 1019.00 1018.73 1018.19 1018.08 1016.31 1016.09 1016.46 1016.84 1016.71 1016.29 1015.99 1015.42 1014.91 1014.16 1013.67 1013.43 1013.41 1013.45 1013.46 1013.51 1013.54 1013.70 1013.63 1013.77 1014.29 1014.69 1015.19 1015.72 1016.26 1016.66 1017.33 1017.87 1018.32 1018.92
1013.41 1013.08 1012.49 1012.37 1012.98 1013.83 1015.15 1016.29 1017.96 1019.27 1020.32 1019.44 1018.50 1017.70 1015.82 1015.81 1016.28 1016.56 1016.71 1016.76 1016.35 1015.95 1015.68 1015.21 1014.88 1014.46 1014.28 1014.24 1014.26 1014.21 1014.44 1014.52 1014.67 1014.75 1015.12 1015.44 1015.85 1016.03 1016.48 1017.15 1017.72 1018.11 1018.82 1019.16
1013.01 1012.78 1012.36 1012.39 1012.78 1013.57 1015.30 1016.52 1017.43 1019.02 1020.41 1020.10 1018.47 1016.99 1015.46 1015.58 1015.93 1016.41 1016.57 1016.84 1016.75 1016.43 1016.16 1015.94 1015.71 1015.45 1015.12 1015.03 1015.09 1014.94 1014.80 1015.21 1015.10 1015.27 1015.69 1015.93 1016.22 1016.38 1017.18 1017.85 1018.25 1018.73 1019.17 1019.60
1011.98 1012.80 1012.81 1012.87 1013.04 1013.99 1014.45 1015.83 1017.38 1018.68 1019.91 1019.78 1018.37 1017.33 1015.98 1015.40 1015.40 1016.08 1016.61 1016.77 1016.98 1016.84 1016.63 1016.37 1016.24 1016.07 1015.98 1015.90 1015.77 1015.70 1015.58 1015.52 1015.44 1015.61 1016.09 1016.36 1016.81 1017.14 1017.90 1018.31 1018.82 1019.19 1019.61 1020.12
1011.88 1012.48 1013.57 1013.37 1013.27 1013.73 1015.01 1015.58 1016.88 1017.96 1018.85 1019.16 1018.60 1016.63 1014.93 1015.00 1015.11 1015.65 1016.51 1016.85 1016.95 1017.08 1016.94 1016.70 1016.56 1016.49 1016.45 1016.41 1016.50 1016.49 1016.31 1016.25 1016.43 1016.30 1016.19 1016.77 1017.24 1017.72 1018.32 1018.88 1019.05 1019.31 1019.77 1020.39
1011.66 1012.42 1013.50 1013.32 1013.13 1013.19 1013.75 1014.59 1015.67 1017.24 1018.48 1018.74 1018.29 1016.01 1014.60 1014.76 1015.09 1015.40 1016.18 1016.74 1016.89 1017.13 1017.17 1017.02 1016.94 1016.89 1016.87 1016.93 1016.99 1017.08 1017.14 1017.18 1017.36 1017.12 1016.64 1017.15 1017.62 1017.99 1018.65 1019.09 1019.25 1020.03 1020.26 1020.66
1011.07 1012.13 1013.34 1013.63 1013.70 1013.46 1013.67 1014.15 1014.89 1015.94 1016.87 1017.63 1017.60 1015.47 1014.75 1014.90 1015.28 1015.49 1015.88 1016.39 1016.74 1017.04 1017.22 1017.17 1017.20 1017.28 1017.34 1017.47 1017.65 1017.73 1017.70 1017.63 1017.58 1017.78 1017.70 1018.11 1018.84 1018.59 1018.68 1019.25 1020.07 1020.49 1020.82 1021.14
1010.06 1011.35 1011.71 1011.92 1011.78 1012.19 1013.13 1013.43 1014.34 1014.98 1016.40 1016.15 1015.56 1014.69 1014.57 1014.74 1015.02 1015.35 1015.66 1016.01 1016.46 1016.76 1017.07 1017.27 1017.37 1017.66 1017.87 1018.03 1018.13 1018.39 1018.51 1018.30 1018.20 1018.15 1018.66 1019.51 1019.92 1019.59 1019.84 1020.21 1020.60 1020.92 1021.52 1022.19
1010.57 1011.42 1011.81 1011.72 1011.63 1011.78 1012.09 1012.62 1013.52 1014.14 1014.17 1014.34 1013.62 1013.86 1013.30 1013.41 1013.85 1014.29 1014.92 1015.66 1016.06 1016.48 1016.79 1017.22 1017.52 1017.74 1017.98 1018.32 1018.49 1018.64 1018.71 1018.89 1019.21 1019.53 1019.91 1020.57 1020.43 1020.30 1020.99 1021.25 1021.15 1021.78 1021.97 1022.99
1010.98 1011.70 1011.91 1011.85 1011.64 1011.67 1011.92 1011.92 1012.41 1012.85 1013.12 1013.08 1012.84 1012.52 1011.81 1012.03 1013.02 1013.90 1014.47 1015.21 1015.63 1015.87 1016.33 1016.89 1017.34 1017.87 1018.17 1018.44 1018.70 1019.21 1019.46 1019.64 1019.69 1020.06 1020.49 1020.68 1020.91 1021.37 1022.11 1022.53 1022.30 1022.34 1022.99 1023.75
1011.05 1011.73 1012.48 1012.29 1011.72 1011.69 1011.59 1009.98 1010.48 1010.95 1011.09 1011.29 1011.84 1010.43 1011.16 1012.04 1012.40 1012.67 1013.45 1014.19 1014.61 1015.12 1015.75 1016.45 1016.90 1017.54 1018.15 1018.67 1019.08 1019.62 1019.99 1020.29 1020.59 1020.96 1021.41 1021.79 1022.25 1022.72 1023.02 1023.07 1023.19 1023.78 1024.17 1024.61
1010.58 1011.61 1012.29 1012.63 1012.15 1010.96 1008.40 1008.01 1008.33 1008.87 1009.20 1009.66 1009.53 1009.70 1010.08 1010.45 1010.70 1011.42 1012.05 1012.74 1013.60 1014.42 1015.16 1015.93 1016.64 1017.37 1018.07 1018.74 1019.29 1019.82 1020.35 1020.78 1021.15 1021.59 1022.06 1022.51 1022.86 1023.21 1023.39 1023.57 1024.03 1024.44 1024.77 1025.11
1009.66 1010.85 1012.36 1012.50 1011.94 1009.53 1007.84 1007.59 1007.74 1008.00 1007.29 1007.33 1007.98 1009.01 1009.67 1010.43 1011.11 1011.37 1011.38 1011.75 1012.31 1013.18 1014.28 1015.19 1016.01 1016.95 1017.84 1018.48 1019.18 1019.71 1020.40 1020.85 1021.32 1021.81 1022.22 1022.59 1022.85 1023.41 1023.84 1024.41 1024.89 1025.27 1025.70 1026.15
1010.13 1010.26 1010.93 1012.11 1011.18 1009.17 1006.75 1005.88 1005.91 1006.62 1006.40 1005.32 1006.36 1007.95 1009.33 1010.29 1010.96 1009.92 1010.15 1011.04 1012.00 1012.83 1013.69 1014.71 1015.74 1016.58 1017.49 1018.24 1018.87 1019.59 1020.27 1020.80 1021.28 1021.65 1022.07 1022.45 1022.90 1023.35 1023.96 1024.46 1024.99 1025.45 1025.83 1026.32
1010.65 1010.91 1011.19 1011.11 1010.09 1008.12 1005.95 1005.57 1005.83 1006.25 1005.10 1004.65 1005.62 1006.97 1008.43 1008.99 1008.53 1008.47 1009.14 1010.50 1011.26 1012.17 1013.23 1014.41 1015.40 1016.09 1016.87 1017.80 1018.52 1019.33 1020.01 1020.51 1020.75 1021.30 1021.85 1022.40 1022.82 1023.24 1023.74 1024.40 1024.95 1025.54 1026.08 1026.63
1008.73 1009.95 1010.55 1010.28 1009.03 1007.12 1005.19 1005.71 1005.11 1003.77 1003.72 1004.25 1005.39 1006.23 1007.16 1007.94 1008.48 1008.85 1009.25 1010.15 1011.05 1011.94 1012.99 1013.99 1015.02 1015.82 1016.59 1017.42 1018.19 1019.06 1019.62 1019.91 1020.54 1021.12 1021.76 1022.41 1022.92 1023.40 1023.98 1024.56 1025.27 1025.83 1026.40 1027.06
1007.31 1006.29 1007.15 1007.25 1005.88 1004.03 1003.74 1003.22 1003.10 1003.23 1003.45 1004.15 1004.76 1005.50 1006.35 1007.39 1008.29 1008.79 1009.40 1010.05 1010.81 1011.47 1012.37 1013.40 1014.42 1015.45 1016.29 1016.84 1017.43 1018.39 1018.99 1019.67 1020.43 1021.22 1021.93 1022.50 1023.10 1023.67 1024.24 1024.86 1025.50 1026.10 1026.47 1026.95
1005.99 1005.71 1005.76 1005.87 1004.15 1003.51 1003.05 1003.10 1003.13 1003.31 1003.30 1003.65 1004.16 1005.01 1005.88 1006.72 1007.79 1008.50 1009.19 1010.02 1010.69 1011.32 1012.04 1012.88 1013.88 1014.83 1015.66 1016.26 1016.83 1017.32 1018.25 1019.03 1019.99 1020.91 1021.75 1022.51 1023.17 1023.86 1024.36 1024.83 1025.28 1025.79 1026.32 1026.69
1003.67 1004.70 1004.34 1004.02 1003.14 1002.93 1002.91 1002.66 1002.56 1003.13 1003.37 1003.67 1004.08 1004.62 1005.27 1006.12 1007.29 1007.87 1008.74 1009.54 1010.09 1010.66 1011.47 1012.15 1012.80 1013.68 1014.42 1015.41 1016.14 1016.83 1017.61 1018.49 1019.52 1020.39 1021.27 1022.17 1022.87 1023.52 1024.28 1024.59 1024.83 1025.15 1025.42 1025.72
1001.97 1001.88 1001.99 1001.48 1001.54 1001.07 1000.81 1000.62 1001.64 1002.60 1002.95 1003.36 1003.86 1004.65 1005.12 1005.53 1006.44 1007.44 1008.24 1008.95 1009.68 1010.29 1010.87 1011.73 1012.20 1013.04 1013.88 1014.71 1015.43 1016.07 1016.76 1017.56 1018.61 1019.78 1020.66 1021.45 1022.34 1023.18 1023.86 1024.37 1024.71 1024.75 1024.98 1025.23
Wind_Speed
2 3 6 9 7 3 3 3 5 5 5 3 3 6 6 4 2 4 6 7 10 11 10 11 8 10 7 10 6 12 14 11 8 5 5 2 4 2 4 4 5 5 6 7
5 6 10 4 4 4 3 3 6 6 3 1 5 9 5 3 1 4 7 10 11 10 13 12 8 7 6 8 9 13 13 13 10 5 4 2 5 3 6 6 6 5 5 8
7 6 3 6 3 3 3 5 4 5 5 0 5 6 3 2 2 4 7 8 7 11 15 15 11 8 7 6 6 6 6 12 11 8 5 5 7 5 4 5 5 5 6 5
6 5 6 4 4 6 3 3 3 2 4 2 3 6 4 2 6 4 8 11 10 14 14 11 9 6 5 6 3 6 6 5 4 10 9 9 5 5 3 6 6 6 5 5
7 5 5 4 7 7 7 1 1 1 2 3 2 3 8 3 5 6 9 10 13 13 13 11 8 6 6 5 7 8 8 5 4 8 7 7 7 6 6 8 10 8 7 7
5 2 5 7 2 3 4 2 5 4 2 2 2 4 7 3 3 4 7 10 13 13 14 11 10 11 11 10 9 9 10 7 6 6 7 9 10 8 7 7 6 5 5 4
1 4 2 3 4 1 4 5 4 5 4 6 1 2 10 3 2 3 5 9 10 10 12 13 12 11 11 10 8 9 11 10 9 9 9 9 11 9 9 7 7 8 5 3
7 3 8 5 5 7 2 6 7 6 3 6 4 5 6 1 4 1 3 5 6 8 8 9 10 9 8 8 8 8 10 10 9 9 8 8 9 7 6 7 6 6 5 5
6 4 1 2 3 6 3 2 4 8 2 3 4 7 5 1 3 2 5 5 4 5 6 6 7 7 7 7 7 6 8 8 9 9 8 9 7 9 9 9 7 6 7 6
7 4 1 2 4 5 4 8 4 3 2 4 5 5 6 4 4 3 2 2 3 3 4 5 5 5 5 6 6 7 8 8 8 9 8 8 8 9 7 7 7 8 7 7
6 5 2 3 6 9 3 2 5 5 4 4 2 7 7 5 4 4 5 3 2 3 3 3 4 5 5 5 6 6 7 7 7 8 10 10 9 10 9 7 7 7 7 6
6 6 5 6 1 4 4 7 7 6 5 2 3 8 1 5 5 5 5 5 3 3 1 3 4 4 6 7 8 8 7 7 6 5 9 10 10 10 10 9 10 7 8 7
10 2 4 5 5 2 5 5 5 6 4 7 6 7 1 2 4 6 5 5 4 5 4 5 4 5 6 6 6 7 6 6 7 8 9 10 8 10 11 12 10 9 9 9
8 4 7 9 6 6 6 7 6 7 5 6 8 3 6 8 8 7 6 6 6 6 6 5 5 5 5 5 5 5 6 6 6 9 10 8 7 9 9 10 10 10 9 8
5 7 6 5 2 4 5 6 10 9 6 8 6 10 8 12 14 12 8 7 7 8 7 7 7 6 4 5 5 5 6 6 6 7 8 7 7 9 8 8 10 10 11 9
1 3 4 2 5 7 5 7 10 10 4 9 4 9 8 1 7 7 9 9 8 8 7 7 7 8 7 5 5 5 6 6 7 7 7 7 8 8 7 7 9 11 10 8
9 8 4 4 3 5 6 13 15 7 7 10 10 11 7 4 9 13 12 13 13 11 10 9 9 9 8 7 7 7 6 6 7 8 7 7 6 7 6 7 9 8 8 7
9 8 3 4 2 5 7 4 6 15 6 12 5 7 11 9 12 6 7 15 13 11 11 9 7 6 7 6 6 7 7 7 7 7 7 7 7 7 7 8 8 7 6 7
2 7 4 7 5 6 4 7 9 10 10 19 20 8 6 5 5 5 11 10 15 14 10 10 8 6 7 8 8 8 7 7 7 7 7 7 7 8 7 7 7 5 6 5
5 5 6 4 6 9 9 4 6 5 8 9 18 11 11 8 4 7 15 13 9 9 10 11 11 7 9 8 8 9 8 7 7 7 7 7 7 7 8 7 7 3 4 5
4 3 7 4 5 8 7 5 6 7 10 6 12 12 13 8 6 3 13 11 12 11 12 10 11 12 12 10 10 9 8 8 7 7 6 6 6 7 7 7 3 5 5 6
10 9 6 3 4 8 8 5 10 8 1 6 7 10 13 6 7 5 9 13 13 12 10 12 11 10 10 12 12 9 10 7 7 7 7 6 6 5 5 7 5 5 6 6
6 8 10 11 10 5 11 3 7 4 5 6 8 8 10 10 7 9 8 11 13 14 13 12 12 11 10 12 13 12 9 9 8 8 7 7 6 6 6 6 6 4 5 4
5 4 5 5 9 10 9 4 2 5 3 5 5 8 11 11 9 8 8 8 10 10 12 12 11 12 12 12 13 11 11 11 11 9 8 7 7 6 5 4 4 5 4 4
7 12 9 5 4 3 4 10 7 6 4 5 5 8 13 10 10 9 9 10 11 12 10 13 14 13 14 13 13 10 12 13 11 9 9 8 7 7 6 4 5 5 4 6
7 9 11 7 8 7 8 18 10 10 10 9 9 7 6 10 11 9 8 9 10 12 11 11 12 11 11 13 13 11 13 14 13 10 8 8 7 5 5 5 3 7 6 11
Wind_Direction
18 75 219 222 198 175 177 206 249 253 258 292 252 280 244 215 284 4 311 311 320 300 289 300 303 303 314 309 209 171 184 184 178 153 164 143 94 132 107 104 128 144 147 137
29 237 233 209 173 191 206 242 262 284 256 230 319 281 256 219 240 86 358 325 307 316 324 321 317 307 317 306 216 178 181 183 190 167 178 108 161 104 96 95 75 103 146 154
171 229 98 157 182 187 235 206 232 229 328 289 339 300 346 321 85 52 341 279 327 326 325 325 324 313 320 327 209 177 182 192 184 159 130 85 93 96 86 85 75 31 109 112
227 253 172 175 206 152 276 222 242 276 37 257 43 286 303 295 316 51 309 354 349 342 331 322 322 313 338 336 61 80 81 96 121 154 157 163 147 145 130 124 119 82 81 54
248 180 164 177 216 166 220 31 313 283 178 39 339 69 268 359 326 14 328 341 355 346 341 346 12 17 46 56 59 72 72 74 70 98 126 138 137 121 139 135 132 123 110 117
230 254 168 199 141 173 121 115 47 54 79 13 276 124 283 289 289 346 303 345 358 354 348 23 49 53 64 60 58 67 73 68 68 81 90 106 126 127 126 134 127 120 104 90
236 220 194 138 107 67 87 62 340 4 11 222 228 68 244 260 154 197 327 345 355 350 6 14 37 53 61 68 55 59 65 55 60 75 84 96 112 118 122 126 124 124 115 105
169 266 174 186 182 179 166 153 153 207 209 265 303 243 259 174 144 283 18 8 9 4 10 20 19 38 51 63 66 69 74 66 63 71 85 101 118 115 103 103 118 114 110 95
144 269 118 126 134 128 169 182 158 105 20 35 252 290 303 307 266 82 38 38 25 7 14 12 28 32 47 47 56 77 87 85 72 73 76 83 101 105 118 116 101 93 107 107
199 108 211 149 104 42 157 156 84 8 126 275 286 274 243 280 278 128 125 48 55 32 30 16 25 47 58 58 50 50 56 80 82 81 79 79 78 89 106 109 113 118 117 121
136 106 244 129 205 172 142 173 63 115 136 180 288 264 209 215 216 197 165 133 6 45 47 43 37 35 52 66 72 67 64 67 78 94 99 91 86 86 85 103 107 103 104 119
191 132 167 199 235 176 170 171 150 127 214 170 152 272 323 205 214 188 161 150 133 92 62 86 78 69 53 55 61 58 67 76 74 73 95 92 99 99 91 77 71 84 96 85
180 182 95 6 356 310 206 190 134 110 95 194 144 259 152 192 219 230 179 163 143 135 148 127 94 76 77 71 72 75 65 65 70 80 78 80 79 86 94 95 94 85 86 87
113 140 164 185 189 142 192 177 169 138 145 177 222 243 236 225 218 221 205 184 163 168 168 153 125 111 98 94 97 90 86 73 74 78 75 79 78 85 92 94 93 92 85 82
136 191 168 225 167 151 183 173 175 195 182 181 223 202 224 214 208 205 196 173 177 179 182 167 155 143 125 118 107 92 80 82 84 84 93 90 76 75 77 87 88 86 84 80
154 180 149 230 205 203 228 218 193 213 206 268 257 259 218 226 122 164 190 178 193 180 192 169 159 160 155 144 120 110 110 98 93 87 82 73 69 69 82 86 85 83 81 77
146 135 128 238 145 130 282 219 201 184 193 186 211 224 162 174 196 196 193 191 195 192 184 187 181 172 160 157 149 145 135 119 108 111 102 101 105 101 98 99 92 86 83 89
143 127 119 154 133 227 237 150 175 205 206 212 224 188 183 195 208 197 192 190 195 182 182 185 175 163 160 152 146 134 136 132 123 118 122 126 119 111 100 91 91 88 78 84
119 129 125 151 196 284 250 196 157 167 257 203 219 186 185 112 86 262 196 190 197 185 174 178 169 154 151 156 152 140 138 136 134 144 143 139 130 123 119 112 117 108 109 100
81 66 118 145 164 211 227 181 153 134 291 201 197 166 148 146 153 241 182 184 183 165 158 158 160 145 151 162 149 146 152 152 162 162 157 148 143 137 134 135 129 113 113 124
127 81 164 162 208 284 239 157 143 126 234 160 173 158 152 188 190 209 160 176 178 171 158 145 156 168 172 159 155 158 157 180 170 147 142 142 144 139 133 126 108 120 113 111
153 143 172 131 150 249 151 75 163 214 119 149 147 163 177 121 146 131 164 164 164 164 149 158 161 167 162 163 164 166 182 169 151 146 145 146 141 135 135 132 119 124 129 130
194 182 170 177 198 224 199 167 208 177 159 178 159 171 164 147 172 159 166 167 176 168 164 165 165 158 168 173 176 174 183 157 152 147 154 153 146 141 143 141 141 129 144 146
237 161 166 120 211 219 215 223 257 208 222 164 168 153 159 166 163 169 151 163 170 169 168 164 159 170 177 181 184 187 160 161 158 161 158 152 150 153 154 143 149 146 159 159
179 146 164 255 288 68 237 225 196 205 216 150 145 165 179 151 178 168 167 173 179 173 167 173 178 183 187 179 185 167 163 160 165 162 159 163 166 163 159 166 171 174 189 169
190 167 183 204 191 180 209 215 166 182 198 191 161 154 174 172 174 166 177 175 170 176 168 181 187 181 181 182 184 171 165 166 163 164 166 173 165 158 157 154 131 200 187 194